When you browse on this site, cookies collect data to enhance your experience and personalize the content and advertising you see.
Visit our Privacy Policy to learn more. By continuing to use the site, you agree to this use of cookies and data.
  • In Lithuania
  • List of Countries
  • For 7 days
  • Water Temperature
  • Satellite Maps
  • Weather Map
  • Weather Widgets
  • user-avatar
    Login

    Hourly Weather Trowbridge

    Today, 25 June, Tuesday

    Time Temperature Precipitation Wind Pressure Humidity
    00:00 +16°C° 0 mm 0 mps 760 mmHg 89%
    01:00 +18°C° 0 mm 1 mps 759 mmHg 90%
    02:00 +18°C° 0 mm 1 mps 759 mmHg 92%
    03:00 +17°C° 0 mm 2 mps 758 mmHg 93%
    04:00 +18°C° 1 mm 1 mps 758 mmHg 95%
    05:00 +18°C° 1 mm 1 mps 759 mmHg 96%
    06:00 +18°C° 0 mm 1 mps 759 mmHg 99%
    07:00 +17°C° 4 mm 2 mps 759 mmHg 98%
    08:00 +17°C° 4 mm 2 mps 759 mmHg 98%
    09:00 +17°C° 4 mm 2 mps 759 mmHg 98%
    10:00 +18°C° 0.3 mm 2 mps 760 mmHg 97%
    11:00 +18°C° 0.3 mm 2 mps 760 mmHg 96%
    12:00 +18°C° 0.3 mm 2 mps 760 mmHg 96%
    13:00 +19°C° 0.1 mm 2 mps 761 mmHg 93%
    14:00 +20°C° 0.1 mm 2 mps 761 mmHg 91%
    15:00 +21°C° 0.1 mm 2 mps 761 mmHg 88%
    16:00 +21°C° 0.2 mm 3 mps 761 mmHg 90%
    17:00 +20°C° 0.2 mm 3 mps 762 mmHg 91%
    18:00 +20°C° 0.2 mm 3 mps 762 mmHg 93%
    19:00 +19°C° 0.1 mm 3 mps 762 mmHg 94%
    20:00 +19°C° 0.1 mm 2 mps 763 mmHg 95%
    21:00 +18°C° 0.1 mm 2 mps 763 mmHg 97%
    22:00 +18°C° 0.1 mm 2 mps 763 mmHg 97%
    23:00 +18°C° 0.1 mm 3 mps 764 mmHg 97%

    Tomorrow, 26 June, Wednesday

    Time Temperature Precipitation Wind Pressure Humidity
    00:00 +18°C° 0.1 mm 3 mps 764 mmHg 97%
    01:00 +17°C° 0.1 mm 3 mps 764 mmHg 97%
    02:00 +17°C° 0.1 mm 3 mps 764 mmHg 97%
    03:00 +17°C° 0.1 mm 4 mps 764 mmHg 97%
    04:00 +17°C° 0 mm 4 mps 764 mmHg 97%
    05:00 +17°C° 0 mm 4 mps 765 mmHg 96%
    06:00 +17°C° 0 mm 4 mps 765 mmHg 96%
    07:00 +17°C° 0 mm 4 mps 765 mmHg 95%
    08:00 +16°C° 0 mm 5 mps 766 mmHg 94%
    09:00 +17°C° 0 mm 5 mps 766 mmHg 92%
    10:00 +17°C° 0 mm 5 mps 766 mmHg 90%
    11:00 +19°C° 0 mm 6 mps 766 mmHg 87%
    12:00 +20°C° 0 mm 6 mps 766 mmHg 85%
    13:00 +20°C° 0 mm 6 mps 766 mmHg 85%
    14:00 +20°C° 0 mm 6 mps 766 mmHg 84%
    15:00 +20°C° 0 mm 7 mps 766 mmHg 84%
    16:00 +20°C° 0 mm 7 mps 766 mmHg 84%
    17:00 +18°C° 0 mm 7 mps 766 mmHg 85%
    18:00 +18°C° 0 mm 7 mps 766 mmHg 86%
    19:00 +17°C° 0 mm 7 mps 766 mmHg 87%
    20:00 +15°C° 0 mm 6 mps 767 mmHg 88%
    21:00 +14°C° 0 mm 6 mps 767 mmHg 89%
    22:00 +13°C° 0 mm 6 mps 767 mmHg 89%
    23:00 +13°C° 0 mm 6 mps 767 mmHg 89%

    Day after tomorrow, 27 June, Thursday

    Time Temperature Precipitation Wind Pressure Humidity
    00:00 +11°C° 0 mm 7 mps 767 mmHg 90%
    01:00 +11°C° 0 mm 6 mps 767 mmHg 90%
    02:00 +10°C° 0 mm 6 mps 767 mmHg 90%
    03:00 +10°C° 0 mm 5 mps 767 mmHg 90%
    04:00 +10°C° 0 mm 6 mps 767 mmHg 89%
    05:00 +11°C° 0 mm 6 mps 767 mmHg 87%
    06:00 +11°C° 0 mm 7 mps 767 mmHg 86%
    07:00 +14°C° 0 mm 7 mps 767 mmHg 82%
    08:00 +15°C° 0 mm 7 mps 767 mmHg 78%
    09:00 +16°C° 0 mm 7 mps 767 mmHg 74%
    10:00 +18°C° 0 mm 7 mps 767 mmHg 73%
    11:00 +20°C° 0 mm 7 mps 767 mmHg 71%
    12:00 +21°C° 0 mm 7 mps 767 mmHg 70%
    13:00 +21°C° 0 mm 7 mps 767 mmHg 70%
    14:00 +22°C° 0 mm 7 mps 766 mmHg 71%
    15:00 +22°C° 0 mm 7 mps 766 mmHg 71%
    16:00 +22°C° 0 mm 7 mps 766 mmHg 74%
    17:00 +21°C° 0 mm 7 mps 765 mmHg 77%
    18:00 +21°C° 0 mm 7 mps 765 mmHg 80%
    19:00 +20°C° 0 mm 7 mps 765 mmHg 79%
    20:00 +18°C° 0 mm 7 mps 765 mmHg 79%
    21:00 +16°C° 0 mm 7 mps 765 mmHg 78%
    22:00 +15°C° 0 mm 7 mps 765 mmHg 79%
    23:00 +14°C° 0 mm 6 mps 765 mmHg 81%

    28 June, Friday

    Time Temperature Precipitation Wind Pressure Humidity
    00:00 +13°C° 0 mm 5 mps 765 mmHg 82%
    01:00 +13°C° 0 mm 5 mps 765 mmHg 83%
    02:00 +11°C° 0 mm 6 mps 765 mmHg 84%
    03:00 +11°C° 0 mm 6 mps 765 mmHg 85%
    04:00 +11°C° 0 mm 6 mps 764 mmHg 85%
    05:00 +11°C° 0 mm 6 mps 764 mmHg 85%
    06:00 +13°C° 0 mm 6 mps 764 mmHg 85%
    07:00 +15°C° 0 mm 6 mps 764 mmHg 83%
    08:00 +16°C° 0 mm 6 mps 764 mmHg 80%
    09:00 +18°C° 0 mm 7 mps 764 mmHg 77%
    10:00 +20°C° 0 mm 7 mps 763 mmHg 75%
    11:00 +21°C° 0 mm 7 mps 763 mmHg 73%
    12:00 +23°C° 0 mm 7 mps 763 mmHg 71%
    13:00 +23°C° 0 mm 7 mps 763 mmHg 71%
    14:00 +24°C° 0 mm 7 mps 762 mmHg 71%
    15:00 +24°C° 0 mm 7 mps 762 mmHg 72%
    16:00 +23°C° 0 mm 7 mps 762 mmHg 74%
    17:00 +22°C° 0 mm 6 mps 761 mmHg 76%
    18:00 +22°C° 0 mm 6 mps 761 mmHg 78%
    19:00 +20°C° 0 mm 5 mps 761 mmHg 79%
    20:00 +17°C° 0 mm 5 mps 761 mmHg 81%
    21:00 +17°C° 0 mm 4 mps 761 mmHg 83%
    22:00 +15°C° 0 mm 4 mps 761 mmHg 86%
    23:00 +14°C° 0 mm 4 mps 761 mmHg 89%

    29 June, Saturday

    Time Temperature Precipitation Wind Pressure Humidity
    00:00 +14°C° 0 mm 4 mps 760 mmHg 92%
    01:00 +14°C° 0 mm 4 mps 760 mmHg 92%
    02:00 +14°C° 0 mm 3 mps 760 mmHg 92%
    03:00 +14°C° 0 mm 3 mps 759 mmHg 91%
    04:00 +14°C° 0 mm 3 mps 759 mmHg 90%
    05:00 +16°C° 0 mm 3 mps 759 mmHg 89%
    06:00 +17°C° 0 mm 3 mps 759 mmHg 88%
    07:00 +19°C° 0 mm 3 mps 759 mmHg 86%
    08:00 +20°C° 0 mm 3 mps 758 mmHg 84%
    09:00 +22°C° 0 mm 3 mps 758 mmHg 82%
    10:00 +24°C° 0 mm 3 mps 758 mmHg 80%
    11:00 +25°C° 0 mm 3 mps 758 mmHg 78%
    12:00 +26°C° 0 mm 3 mps 757 mmHg 75%
    13:00 +26°C° 0 mm 3 mps 757 mmHg 75%
    14:00 +26°C° 0 mm 3 mps 757 mmHg 75%
    15:00 +26°C° 0 mm 3 mps 757 mmHg 75%
    16:00 +25°C° 0 mm 3 mps 756 mmHg 79%
    17:00 +24°C° 0 mm 3 mps 756 mmHg 84%
    18:00 +22°C° 0 mm 3 mps 756 mmHg 88%
    19:00 +20°C° 0 mm 4 mps 756 mmHg 86%
    20:00 +18°C° 0 mm 4 mps 756 mmHg 83%
    21:00 +17°C° 0 mm 4 mps 756 mmHg 81%
    22:00 +15°C° 0 mm 4 mps 756 mmHg 84%
    23:00 +14°C° 0 mm 4 mps 756 mmHg 87%

    30 June, Sunday

    Time Temperature Precipitation Wind Pressure Humidity
    00:00 +13°C° 0 mm 4 mps 756 mmHg 90%
    01:00 +13°C° 0 mm 4 mps 756 mmHg 93%
    02:00 +13°C° 0 mm 4 mps 756 mmHg 95%
    03:00 +12°C° 0 mm 3 mps 756 mmHg 97%
    04:00 +13°C° 0 mm 4 mps 756 mmHg 95%
    05:00 +14°C° 0 mm 4 mps 757 mmHg 93%
    06:00 +15°C° 0 mm 5 mps 757 mmHg 91%
    07:00 +15°C° 0 mm 5 mps 757 mmHg 88%
    08:00 +16°C° 0 mm 5 mps 757 mmHg 85%
    09:00 +17°C° 0 mm 6 mps 758 mmHg 81%
    10:00 +19°C° 0 mm 6 mps 758 mmHg 79%
    11:00 +20°C° 0 mm 6 mps 758 mmHg 77%
    12:00 +20°C° 0 mm 6 mps 758 mmHg 74%
    13:00 +20°C° 0 mm 6 mps 758 mmHg 74%
    14:00 +20°C° 0 mm 6 mps 758 mmHg 73%
    15:00 +21°C° 0 mm 6 mps 758 mmHg 73%
    16:00 +20°C° 0 mm 6 mps 758 mmHg 75%
    17:00 +19°C° 0 mm 5 mps 758 mmHg 77%
    18:00 +19°C° 0 mm 5 mps 758 mmHg 80%
    19:00 +16°C° 0 mm 5 mps 758 mmHg 85%
    20:00 +15°C° 0 mm 4 mps 758 mmHg 89%
    21:00 +13°C° 0 mm 4 mps 759 mmHg 94%
    22:00 +13°C° 0 mm 4 mps 759 mmHg 95%
    23:00 +12°C° 0 mm 3 mps 759 mmHg 96%
    Show more